QPF
0.01 0.01 0.01 0.02 0.02 0.01 0.01 0.01 0.02 0.03 0.03 0.03 0.03 0.05 0.04 0.03 0.02 0.03 0.04 0.07 0.09 0.12 0.14 0.12 0.08 0.08 0.08 0.07 0.07 0.07 0.06 0.05 0.04 0.04 0.04 0.04 0.03 0.03 0.03 0.03 0.03 0.04 0.06
0.01 0.00 0.01 0.01 0.01 0.01 0.01 0.01 0.01 0.02 0.02 0.03 0.04 0.05 0.05 0.03 0.03 0.04 0.04 0.03 0.03 0.05 0.07 0.09 0.09 0.09 0.09 0.08 0.07 0.08 0.08 0.07 0.05 0.05 0.05 0.04 0.04 0.04 0.03 0.02 0.02 0.02 0.03
0.01 0.01 0.01 0.01 0.01 0.01 0.01 0.01 0.01 0.01 0.02 0.02 0.03 0.04 0.04 0.02 0.02 0.03 0.03 0.02 0.02 0.03 0.05 0.06 0.07 0.07 0.07 0.08 0.08 0.08 0.08 0.07 0.05 0.05 0.05 0.05 0.05 0.04 0.03 0.02 0.02 0.02 0.03
0.01 0.01 0.01 0.01 0.01 0.01 0.02 0.02 0.02 0.02 0.02 0.02 0.03 0.03 0.02 0.02 0.02 0.02 0.02 0.02 0.02 0.03 0.05 0.06 0.07 0.07 0.09 0.09 0.10 0.09 0.09 0.08 0.06 0.06 0.07 0.06 0.05 0.05 0.04 0.03 0.02 0.02 0.03
0.01 0.01 0.01 0.01 0.01 0.02 0.03 0.03 0.03 0.03 0.03 0.03 0.03 0.02 0.03 0.03 0.03 0.02 0.02 0.02 0.02 0.03 0.03 0.03 0.05 0.06 0.07 0.06 0.07 0.07 0.10 0.10 0.07 0.06 0.07 0.07 0.08 0.07 0.05 0.03 0.02 0.02 0.03
0.02 0.01 0.01 0.01 0.01 0.02 0.02 0.03 0.04 0.03 0.03 0.02 0.03 0.02 0.02 0.02 0.02 0.03 0.02 0.02 0.02 0.02 0.02 0.02 0.03 0.04 0.05 0.05 0.05 0.07 0.09 0.10 0.09 0.09 0.08 0.08 0.10 0.09 0.06 0.03 0.02 0.02 0.03
0.03 0.02 0.01 0.01 0.01 0.02 0.03 0.04 0.03 0.02 0.01 0.02 0.02 0.01 0.01 0.01 0.01 0.01 0.02 0.02 0.01 0.01 0.01 0.01 0.02 0.03 0.04 0.05 0.04 0.04 0.06 0.08 0.10 0.12 0.09 0.09 0.09 0.07 0.06 0.05 0.03 0.03 0.05
0.03 0.02 0.01 0.00 0.01 0.02 0.02 0.02 0.02 0.02 0.01 0.02 0.02 0.02 0.02 0.02 0.01 0.01 0.01 0.01 0.00 0.00 0.00 0.00 0.01 0.01 0.02 0.04 0.04 0.03 0.04 0.05 0.06 0.08 0.08 0.07 0.07 0.06 0.05 0.06 0.05 0.05 0.05
0.03 0.02 0.01 0.01 0.01 0.01 0.01 0.01 0.02 0.04 0.03 0.02 0.02 0.02 0.02 0.02 0.02 0.01 0.01 0.00 0.00 0.00 0.00 0.01 0.00 0.00 0.01 0.03 0.04 0.04 0.03 0.03 0.04 0.05 0.06 0.06 0.05 0.05 0.05 0.05 0.05 0.06 0.05
0.04 0.03 0.02 0.02 0.01 0.01 0.01 0.01 0.01 0.02 0.02 0.01 0.01 0.01 0.01 0.02 0.02 0.01 0.01 0.00 0.00 0.00 0.01 0.00 0.00 0.00 0.01 0.03 0.04 0.04 0.03 0.03 0.04 0.05 0.05 0.05 0.05 0.05 0.04 0.05 0.06 0.07 0.06
0.06 0.04 0.03 0.02 0.02 0.01 0.01 0.01 0.01 0.01 0.02 0.01 0.01 0.01 0.01 0.01 0.01 0.01 0.01 0.01 0.00 0.00 0.01 0.00 0.00 0.00 0.01 0.02 0.03 0.04 0.03 0.04 0.04 0.05 0.05 0.05 0.05 0.06 0.05 0.07 0.08 0.09 0.09
0.05 0.05 0.04 0.03 0.02 0.01 0.01 0.01 0.01 0.02 0.01 0.01 0.01 0.01 0.01 0.01 0.02 0.01 0.01 0.01 0.01 0.01 0.01 0.00 0.01 0.01 0.01 0.01 0.02 0.02 0.04 0.06 0.07 0.08 0.08 0.08 0.07 0.06 0.06 0.07 0.09 0.09 0.08
0.03 0.03 0.02 0.02 0.02 0.03 0.02 0.01 0.01 0.01 0.01 0.01 0.01 0.02 0.01 0.01 0.01 0.01 0.01 0.01 0.01 0.01 0.00 0.00 0.01 0.02 0.01 0.01 0.02 0.02 0.05 0.07 0.09 0.11 0.11 0.09 0.07 0.07 0.09 0.09 0.08 0.09 0.08
0.03 0.03 0.01 0.01 0.01 0.02 0.02 0.01 0.01 0.01 0.01 0.01 0.01 0.02 0.02 0.01 0.01 0.01 0.02 0.01 0.01 0.01 0.01 0.01 0.02 0.02 0.01 0.01 0.02 0.02 0.05 0.08 0.10 0.09 0.06 0.06 0.06 0.07 0.08 0.08 0.08 0.08 0.09
0.02 0.01 0.01 0.01 0.01 0.01 0.01 0.01 0.01 0.01 0.01 0.01 0.01 0.03 0.02 0.01 0.01 0.01 0.02 0.02 0.01 0.01 0.01 0.02 0.03 0.02 0.01 0.02 0.02 0.03 0.06 0.07 0.06 0.05 0.04 0.04 0.05 0.06 0.06 0.07 0.09 0.07 0.06
0.02 0.01 0.01 0.01 0.01 0.01 0.01 0.01 0.01 0.01 0.01 0.01 0.01 0.01 0.01 0.01 0.01 0.01 0.01 0.02 0.02 0.02 0.03 0.04 0.03 0.02 0.02 0.02 0.02 0.03 0.04 0.05 0.04 0.03 0.03 0.03 0.03 0.04 0.05 0.05 0.05 0.05 0.05
0.02 0.01 0.00 0.00 0.00 0.00 0.01 0.01 0.01 0.01 0.01 0.01 0.00 0.00 0.00 0.00 0.01 0.01 0.01 0.01 0.01 0.02 0.02 0.02 0.02 0.02 0.02 0.02 0.02 0.02 0.03 0.03 0.03 0.02 0.02 0.02 0.02 0.02 0.03 0.04 0.04 0.04 0.04
0.02 0.02 0.01 0.01 0.00 0.00 0.00 0.00 0.01 0.01 0.01 0.01 0.01 0.00 0.00 0.00 0.00 0.00 0.01 0.01 0.01 0.01 0.01 0.01 0.02 0.02 0.01 0.02 0.02 0.02 0.02 0.03 0.02 0.02 0.02 0.02 0.02 0.03 0.03 0.04 0.04 0.04 0.04
0.01 0.02 0.01 0.01 0.01 0.01 0.01 0.00 0.00 0.01 0.01 0.01 0.01 0.01 0.01 0.01 0.00 0.01 0.01 0.01 0.01 0.01 0.01 0.01 0.01 0.01 0.01 0.01 0.02 0.03 0.03 0.03 0.03 0.02 0.02 0.02 0.03 0.03 0.03 0.03 0.04 0.04 0.04
0.01 0.01 0.01 0.01 0.01 0.01 0.01 0.01 0.01 0.01 0.01 0.01 0.01 0.01 0.01 0.01 0.01 0.01 0.01 0.01 0.01 0.01 0.01 0.01 0.01 0.01 0.01 0.01 0.01 0.03 0.05 0.05 0.04 0.03 0.02 0.02 0.03 0.03 0.03 0.03 0.03 0.04 0.04
0.01 0.01 0.01 0.01 0.01 0.01 0.02 0.02 0.01 0.01 0.01 0.01 0.01 0.01 0.01 0.01 0.01 0.01 0.01 0.01 0.01 0.02 0.02 0.01 0.01 0.02 0.02 0.01 0.01 0.01 0.03 0.06 0.07 0.04 0.03 0.03 0.02 0.03 0.03 0.03 0.04 0.04 0.03
0.01 0.01 0.01 0.01 0.02 0.02 0.03 0.04 0.02 0.02 0.02 0.02 0.02 0.01 0.01 0.02 0.02 0.02 0.01 0.01 0.01 0.02 0.02 0.02 0.02 0.02 0.02 0.02 0.02 0.02 0.02 0.03 0.06 0.06 0.05 0.04 0.02 0.02 0.03 0.03 0.03 0.03 0.03
0.01 0.01 0.01 0.02 0.02 0.02 0.03 0.03 0.02 0.01 0.01 0.02 0.02 0.02 0.02 0.02 0.02 0.02 0.02 0.02 0.02 0.02 0.02 0.02 0.02 0.01 0.02 0.02 0.04 0.04 0.04 0.04 0.04 0.04 0.04 0.04 0.03 0.03 0.03 0.02 0.03 0.04 0.03
0.01 0.01 0.01 0.01 0.01 0.02 0.02 0.03 0.02 0.01 0.00 0.00 0.01 0.01 0.02 0.02 0.02 0.03 0.03 0.03 0.02 0.02 0.02 0.02 0.02 0.02 0.02 0.03 0.03 0.05 0.06 0.06 0.05 0.04 0.04 0.04 0.03 0.03 0.03 0.02 0.02 0.04 0.04
0.01 0.01 0.01 0.01 0.01 0.01 0.02 0.02 0.02 0.01 0.01 0.01 0.01 0.01 0.01 0.02 0.03 0.03 0.02 0.02 0.02 0.02 0.02 0.02 0.02 0.02 0.02 0.03 0.04 0.05 0.06 0.07 0.07 0.06 0.05 0.04 0.03 0.03 0.04 0.03 0.02 0.03 0.04
0.01 0.01 0.01 0.01 0.01 0.01 0.02 0.01 0.02 0.01 0.01 0.01 0.01 0.01 0.02 0.02 0.02 0.03 0.02 0.02 0.02 0.01 0.02 0.02 0.02 0.02 0.02 0.03 0.03 0.04 0.05 0.06 0.07 0.07 0.05 0.04 0.03 0.03 0.04 0.05 0.03 0.02 0.03
MSLP
1015.99 1016.13 1016.23 1016.30 1016.34 1016.39 1016.44 1016.53 1016.64 1016.76 1016.89 1017.00 1017.09 1017.15 1017.20 1017.25 1017.32 1017.42 1017.55 1017.71 1017.88 1018.04 1018.17 1018.24 1018.25 1018.20 1018.09 1017.97 1017.84 1017.73 1017.66 1017.65 1017.69 1017.78 1017.91 1018.09 1018.29 1018.51 1018.73 1018.95 1019.16 1019.36 1019.54
1016.06 1016.24 1016.38 1016.49 1016.57 1016.65 1016.73 1016.84 1016.96 1017.10 1017.24 1017.35 1017.45 1017.51 1017.56 1017.60 1017.65 1017.73 1017.83 1017.95 1018.09 1018.22 1018.31 1018.36 1018.33 1018.25 1018.11 1017.95 1017.78 1017.63 1017.53 1017.48 1017.50 1017.58 1017.72 1017.90 1018.11 1018.35 1018.60 1018.85 1019.09 1019.33 1019.56
1016.15 1016.37 1016.55 1016.70 1016.83 1016.94 1017.06 1017.19 1017.33 1017.48 1017.63 1017.75 1017.85 1017.91 1017.95 1017.97 1017.99 1018.03 1018.09 1018.16 1018.25 1018.33 1018.38 1018.38 1018.32 1018.21 1018.05 1017.86 1017.66 1017.49 1017.36 1017.29 1017.28 1017.35 1017.48 1017.66 1017.88 1018.13 1018.39 1018.66 1018.93 1019.21 1019.49
1016.25 1016.50 1016.72 1016.90 1017.07 1017.22 1017.37 1017.53 1017.69 1017.85 1018.00 1018.13 1018.23 1018.29 1018.32 1018.32 1018.31 1018.30 1018.31 1018.33 1018.36 1018.38 1018.38 1018.34 1018.25 1018.11 1017.93 1017.73 1017.52 1017.33 1017.18 1017.09 1017.07 1017.13 1017.25 1017.42 1017.63 1017.88 1018.14 1018.43 1018.72 1019.03 1019.36
1016.33 1016.59 1016.84 1017.06 1017.26 1017.44 1017.62 1017.80 1017.98 1018.15 1018.31 1018.44 1018.54 1018.60 1018.62 1018.61 1018.57 1018.53 1018.49 1018.45 1018.42 1018.40 1018.35 1018.28 1018.17 1018.01 1017.82 1017.60 1017.38 1017.17 1017.01 1016.91 1016.87 1016.91 1017.02 1017.18 1017.39 1017.63 1017.90 1018.19 1018.50 1018.84 1019.20
1016.38 1016.65 1016.91 1017.15 1017.37 1017.58 1017.78 1017.98 1018.17 1018.35 1018.51 1018.65 1018.75 1018.81 1018.83 1018.80 1018.75 1018.68 1018.61 1018.54 1018.47 1018.40 1018.33 1018.23 1018.10 1017.93 1017.72 1017.49 1017.25 1017.03 1016.85 1016.72 1016.67 1016.69 1016.78 1016.94 1017.14 1017.39 1017.67 1017.97 1018.31 1018.67 1019.07
1016.40 1016.66 1016.93 1017.18 1017.42 1017.65 1017.86 1018.07 1018.26 1018.44 1018.60 1018.74 1018.84 1018.90 1018.92 1018.90 1018.84 1018.77 1018.68 1018.59 1018.51 1018.43 1018.33 1018.22 1018.07 1017.89 1017.66 1017.41 1017.14 1016.88 1016.66 1016.49 1016.40 1016.40 1016.47 1016.63 1016.85 1017.12 1017.43 1017.77 1018.14 1018.55 1018.99
1016.39 1016.64 1016.91 1017.17 1017.42 1017.66 1017.88 1018.08 1018.27 1018.44 1018.60 1018.73 1018.83 1018.89 1018.92 1018.90 1018.86 1018.79 1018.71 1018.64 1018.56 1018.47 1018.38 1018.26 1018.10 1017.89 1017.63 1017.33 1017.01 1016.68 1016.39 1016.16 1016.01 1015.97 1016.03 1016.19 1016.44 1016.75 1017.12 1017.54 1017.98 1018.45 1018.94
1016.35 1016.60 1016.87 1017.14 1017.39 1017.63 1017.85 1018.05 1018.23 1018.38 1018.52 1018.64 1018.74 1018.80 1018.84 1018.84 1018.81 1018.77 1018.72 1018.67 1018.61 1018.55 1018.47 1018.35 1018.18 1017.94 1017.62 1017.25 1016.83 1016.41 1016.01 1015.68 1015.45 1015.35 1015.39 1015.56 1015.85 1016.24 1016.70 1017.22 1017.76 1018.33 1018.91
1016.27 1016.53 1016.80 1017.08 1017.34 1017.58 1017.80 1017.99 1018.15 1018.29 1018.41 1018.51 1018.60 1018.66 1018.70 1018.72 1018.72 1018.71 1018.70 1018.69 1018.67 1018.64 1018.58 1018.47 1018.28 1018.00 1017.61 1017.14 1016.61 1016.05 1015.51 1015.06 1014.72 1014.55 1014.55 1014.73 1015.07 1015.55 1016.13 1016.78 1017.46 1018.16 1018.84
1016.14 1016.41 1016.69 1016.98 1017.25 1017.49 1017.70 1017.88 1018.03 1018.15 1018.25 1018.34 1018.42 1018.48 1018.53 1018.57 1018.60 1018.62 1018.66 1018.69 1018.72 1018.74 1018.70 1018.60 1018.39 1018.06 1017.60 1017.02 1016.36 1015.65 1014.96 1014.35 1013.90 1013.63 1013.59 1013.77 1014.17 1014.74 1015.45 1016.24 1017.08 1017.92 1018.73
1015.95 1016.22 1016.52 1016.81 1017.09 1017.33 1017.54 1017.71 1017.85 1017.96 1018.05 1018.13 1018.20 1018.26 1018.32 1018.37 1018.43 1018.50 1018.58 1018.67 1018.75 1018.80 1018.81 1018.72 1018.51 1018.14 1017.61 1016.93 1016.14 1015.29 1014.45 1013.69 1013.11 1012.75 1012.66 1012.84 1013.27 1013.93 1014.75 1015.69 1016.67 1017.65 1018.59
1015.69 1015.96 1016.25 1016.55 1016.82 1017.06 1017.27 1017.44 1017.57 1017.68 1017.77 1017.85 1017.93 1018.00 1018.07 1018.14 1018.23 1018.33 1018.46 1018.59 1018.72 1018.83 1018.88 1018.82 1018.61 1018.23 1017.66 1016.91 1016.03 1015.07 1014.11 1013.23 1012.55 1012.11 1011.96 1012.12 1012.58 1013.30 1014.21 1015.25 1016.35 1017.45 1018.49
1015.36 1015.62 1015.90 1016.17 1016.43 1016.67 1016.87 1017.04 1017.18 1017.30 1017.40 1017.50 1017.59 1017.67 1017.76 1017.86 1017.98 1018.11 1018.28 1018.46 1018.64 1018.80 1018.90 1018.89 1018.72 1018.36 1017.79 1017.02 1016.10 1015.09 1014.07 1013.13 1012.37 1011.87 1011.68 1011.82 1012.28 1013.02 1013.98 1015.08 1016.25 1017.41 1018.51
1015.01 1015.23 1015.47 1015.71 1015.94 1016.15 1016.34 1016.52 1016.67 1016.81 1016.94 1017.06 1017.17 1017.29 1017.40 1017.53 1017.67 1017.84 1018.04 1018.26 1018.50 1018.71 1018.87 1018.92 1018.81 1018.51 1018.00 1017.29 1016.40 1015.41 1014.40 1013.46 1012.69 1012.17 1011.96 1012.08 1012.53 1013.25 1014.20 1015.30 1016.47 1017.63 1018.74
1014.66 1014.82 1015.00 1015.18 1015.37 1015.55 1015.73 1015.90 1016.06 1016.23 1016.39 1016.54 1016.70 1016.84 1016.99 1017.15 1017.32 1017.51 1017.74 1018.00 1018.28 1018.55 1018.78 1018.90 1018.89 1018.69 1018.29 1017.69 1016.92 1016.03 1015.11 1014.24 1013.53 1013.04 1012.83 1012.94 1013.35 1014.02 1014.92 1015.95 1017.05 1018.15 1019.19
1014.36 1014.44 1014.54 1014.66 1014.78 1014.93 1015.08 1015.24 1015.42 1015.60 1015.80 1015.99 1016.18 1016.36 1016.54 1016.72 1016.92 1017.14 1017.40 1017.69 1018.01 1018.33 1018.62 1018.84 1018.93 1018.87 1018.62 1018.18 1017.58 1016.87 1016.11 1015.38 1014.78 1014.37 1014.19 1014.29 1014.66 1015.26 1016.06 1016.98 1017.96 1018.93 1019.85
1014.13 1014.14 1014.16 1014.20 1014.26 1014.35 1014.47 1014.62 1014.79 1014.99 1015.21 1015.43 1015.65 1015.86 1016.07 1016.28 1016.50 1016.75 1017.02 1017.34 1017.69 1018.05 1018.40 1018.70 1018.91 1018.99 1018.91 1018.66 1018.27 1017.77 1017.22 1016.68 1016.23 1015.92 1015.81 1015.91 1016.23 1016.75 1017.42 1018.19 1019.01 1019.83 1020.60
1013.99 1013.93 1013.88 1013.85 1013.85 1013.89 1013.96 1014.08 1014.24 1014.44 1014.66 1014.89 1015.13 1015.37 1015.60 1015.84 1016.08 1016.34 1016.63 1016.96 1017.33 1017.73 1018.13 1018.49 1018.80 1019.00 1019.08 1019.03 1018.85 1018.58 1018.25 1017.91 1017.63 1017.44 1017.40 1017.51 1017.79 1018.21 1018.75 1019.37 1020.02 1020.67 1021.29
1013.93 1013.82 1013.71 1013.63 1013.57 1013.56 1013.59 1013.67 1013.80 1013.97 1014.18 1014.41 1014.65 1014.90 1015.14 1015.39 1015.65 1015.93 1016.23 1016.58 1016.96 1017.37 1017.79 1018.20 1018.57 1018.88 1019.09 1019.20 1019.21 1019.14 1019.01 1018.87 1018.74 1018.68 1018.70 1018.83 1019.06 1019.40 1019.81 1020.28 1020.77 1021.27 1021.74
1013.92 1013.79 1013.65 1013.53 1013.43 1013.37 1013.36 1013.39 1013.47 1013.60 1013.78 1013.98 1014.20 1014.44 1014.69 1014.95 1015.22 1015.52 1015.83 1016.18 1016.57 1016.98 1017.40 1017.83 1018.24 1018.60 1018.89 1019.12 1019.27 1019.36 1019.39 1019.40 1019.41 1019.45 1019.53 1019.66 1019.86 1020.12 1020.42 1020.76 1021.12 1021.49 1021.85
1013.93 1013.80 1013.66 1013.52 1013.40 1013.30 1013.24 1013.22 1013.25 1013.32 1013.44 1013.60 1013.79 1014.01 1014.25 1014.52 1014.80 1015.10 1015.43 1015.79 1016.17 1016.56 1016.98 1017.39 1017.79 1018.17 1018.50 1018.79 1019.03 1019.21 1019.36 1019.48 1019.58 1019.69 1019.81 1019.94 1020.10 1020.29 1020.51 1020.75 1021.02 1021.29 1021.59
1013.93 1013.83 1013.71 1013.58 1013.44 1013.32 1013.21 1013.14 1013.10 1013.10 1013.15 1013.25 1013.40 1013.59 1013.82 1014.09 1014.38 1014.70 1015.03 1015.39 1015.76 1016.14 1016.52 1016.89 1017.26 1017.61 1017.94 1018.24 1018.52 1018.76 1018.97 1019.15 1019.31 1019.46 1019.60 1019.73 1019.86 1020.00 1020.15 1020.32 1020.51 1020.73 1020.99
1013.93 1013.87 1013.78 1013.66 1013.53 1013.38 1013.24 1013.11 1013.00 1012.94 1012.92 1012.95 1013.05 1013.20 1013.41 1013.67 1013.96 1014.29 1014.64 1014.99 1015.34 1015.69 1016.03 1016.36 1016.67 1016.98 1017.27 1017.56 1017.83 1018.08 1018.32 1018.54 1018.73 1018.90 1019.05 1019.17 1019.28 1019.38 1019.48 1019.60 1019.75 1019.94 1020.18
1013.94 1013.92 1013.87 1013.77 1013.64 1013.49 1013.31 1013.13 1012.96 1012.83 1012.73 1012.70 1012.74 1012.85 1013.03 1013.28 1013.57 1013.89 1014.24 1014.58 1014.91 1015.22 1015.52 1015.79 1016.05 1016.30 1016.55 1016.80 1017.06 1017.31 1017.56 1017.80 1018.02 1018.21 1018.36 1018.48 1018.57 1018.64 1018.71 1018.80 1018.92 1019.09 1019.32
1013.99 1014.01 1013.98 1013.91 1013.79 1013.63 1013.43 1013.21 1012.99 1012.78 1012.62 1012.53 1012.51 1012.57 1012.72 1012.93 1013.21 1013.52 1013.85 1014.17 1014.47 1014.74 1014.98 1015.20 1015.40 1015.60 1015.81 1016.04 1016.28 1016.54 1016.81 1017.07 1017.32 1017.53 1017.69 1017.82 1017.91 1017.97 1018.02 1018.08 1018.17 1018.32 1018.52
Thickness
5712 5712 5711 5710 5710 5710 5710 5710 5711 5711 5711 5711 5711 5711 5712 5712 5712 5713 5712 5711 5711 5712 5713 5714 5715 5716 5717 5717 5718 5719 5720 5720 5721 5723 5724 5724 5724 5724 5724 5724 5724 5723 5723
5708 5707 5708 5706 5706 5706 5706 5706 5707 5705 5706 5706 5705 5706 5706 5707 5707 5707 5708 5707 5706 5707 5708 5709 5710 5711 5712 5713 5714 5714 5715 5716 5717 5719 5719 5720 5720 5719 5719 5719 5719 5719 5719
5704 5704 5704 5703 5702 5702 5702 5701 5701 5701 5701 5700 5700 5700 5701 5701 5702 5703 5704 5704 5704 5703 5703 5704 5705 5706 5707 5709 5709 5710 5711 5712 5713 5714 5715 5716 5715 5715 5715 5714 5714 5714 5713
5699 5699 5698 5698 5697 5697 5697 5696 5696 5695 5695 5695 5695 5695 5696 5696 5697 5698 5699 5699 5700 5700 5700 5699 5700 5701 5702 5704 5705 5706 5707 5708 5709 5711 5712 5712 5711 5711 5710 5710 5709 5709 5708
5695 5694 5693 5693 5693 5692 5692 5692 5692 5691 5690 5689 5690 5690 5691 5691 5691 5692 5694 5694 5694 5695 5695 5695 5695 5696 5697 5698 5700 5701 5703 5704 5706 5708 5708 5708 5708 5707 5706 5705 5704 5704 5703
5690 5689 5688 5688 5688 5687 5686 5686 5685 5685 5684 5684 5686 5685 5686 5686 5687 5687 5688 5689 5689 5690 5691 5692 5692 5692 5692 5693 5694 5696 5698 5699 5701 5704 5704 5704 5703 5702 5701 5700 5699 5699 5698
5684 5684 5684 5684 5683 5682 5681 5681 5681 5680 5679 5681 5681 5680 5682 5682 5682 5681 5682 5683 5684 5685 5686 5686 5688 5688 5689 5689 5689 5691 5692 5694 5696 5697 5698 5698 5698 5697 5696 5695 5694 5693 5693
5680 5680 5679 5679 5678 5677 5677 5676 5675 5674 5675 5676 5676 5675 5674 5675 5675 5677 5676 5677 5679 5680 5681 5681 5682 5683 5684 5685 5685 5685 5686 5688 5690 5691 5692 5692 5691 5691 5690 5690 5689 5688 5688
5674 5674 5675 5674 5673 5673 5672 5671 5671 5669 5669 5670 5672 5670 5668 5668 5668 5670 5671 5671 5672 5673 5675 5675 5676 5677 5678 5679 5679 5680 5681 5683 5684 5685 5685 5685 5685 5685 5685 5684 5683 5683 5683
5669 5669 5668 5668 5669 5668 5668 5667 5667 5666 5665 5665 5665 5665 5666 5665 5662 5662 5665 5667 5667 5667 5668 5669 5669 5670 5671 5673 5673 5673 5675 5676 5677 5678 5679 5679 5679 5679 5679 5679 5678 5678 5678
5663 5663 5662 5663 5663 5663 5663 5662 5662 5661 5661 5660 5660 5660 5660 5660 5661 5658 5657 5658 5660 5662 5662 5663 5663 5664 5665 5666 5667 5667 5669 5670 5671 5672 5673 5673 5673 5673 5673 5673 5673 5673 5672
5657 5657 5657 5657 5658 5658 5658 5657 5657 5656 5656 5656 5656 5656 5655 5654 5654 5654 5653 5653 5653 5656 5656 5657 5658 5657 5658 5659 5660 5660 5662 5664 5665 5666 5666 5667 5667 5667 5667 5667 5667 5667 5667
5652 5651 5651 5652 5652 5652 5652 5652 5652 5652 5652 5651 5651 5651 5651 5651 5650 5650 5649 5649 5649 5651 5651 5652 5652 5651 5652 5653 5653 5654 5656 5658 5659 5659 5660 5660 5660 5660 5660 5661 5661 5661 5661
5646 5645 5646 5646 5646 5646 5647 5647 5647 5647 5647 5647 5646 5646 5645 5645 5645 5645 5644 5644 5644 5646 5647 5647 5647 5646 5646 5647 5647 5648 5650 5651 5652 5653 5653 5653 5654 5654 5654 5654 5654 5654 5654
5640 5640 5640 5640 5640 5640 5641 5641 5642 5642 5642 5642 5641 5641 5640 5640 5640 5640 5640 5640 5639 5639 5640 5641 5641 5641 5640 5640 5639 5642 5644 5644 5645 5646 5646 5646 5647 5647 5647 5647 5648 5648 5647
5634 5635 5635 5636 5635 5635 5636 5636 5636 5636 5636 5636 5635 5635 5635 5635 5635 5634 5634 5634 5635 5634 5634 5635 5635 5635 5634 5634 5633 5635 5637 5637 5638 5638 5639 5639 5640 5640 5640 5640 5640 5640 5640
5629 5629 5630 5630 5631 5631 5631 5630 5630 5630 5631 5631 5631 5631 5630 5630 5629 5629 5628 5628 5628 5628 5627 5629 5629 5629 5628 5628 5628 5628 5630 5631 5631 5631 5631 5632 5632 5632 5632 5633 5633 5633 5633
5623 5623 5623 5624 5625 5625 5625 5625 5624 5624 5625 5625 5625 5625 5625 5624 5624 5623 5622 5623 5622 5623 5623 5621 5622 5621 5621 5621 5621 5621 5622 5624 5624 5624 5624 5624 5624 5624 5625 5625 5625 5625 5625
5616 5617 5617 5617 5618 5618 5619 5619 5619 5619 5620 5620 5619 5619 5619 5618 5617 5617 5616 5616 5616 5617 5616 5616 5615 5614 5614 5614 5613 5614 5615 5616 5617 5617 5617 5617 5617 5617 5617 5618 5618 5618 5619
5610 5610 5611 5611 5611 5612 5612 5613 5613 5613 5613 5613 5613 5612 5612 5611 5611 5611 5610 5610 5610 5609 5609 5608 5608 5607 5606 5606 5606 5606 5607 5608 5609 5610 5610 5610 5610 5610 5610 5611 5611 5612 5612
5604 5603 5603 5604 5605 5605 5605 5605 5606 5606 5606 5606 5606 5605 5605 5603 5601 5601 5601 5601 5601 5601 5601 5600 5600 5600 5599 5598 5598 5600 5600 5601 5602 5603 5603 5604 5605 5605 5604 5604 5604 5605 5605
5598 5597 5596 5596 5596 5596 5595 5594 5595 5598 5598 5599 5599 5598 5597 5596 5593 5591 5590 5591 5591 5592 5593 5593 5593 5593 5593 5592 5591 5592 5593 5593 5595 5596 5595 5597 5598 5599 5599 5599 5598 5598 5598
5591 5590 5589 5588 5588 5588 5586 5585 5585 5588 5590 5590 5590 5589 5589 5588 5585 5586 5584 5583 5583 5582 5582 5585 5586 5586 5586 5586 5585 5585 5585 5586 5588 5588 5587 5590 5591 5592 5593 5593 5592 5592 5592
5585 5583 5582 5581 5580 5580 5578 5578 5577 5580 5581 5581 5581 5581 5580 5580 5579 5578 5579 5578 5578 5577 5576 5576 5578 5579 5578 5578 5578 5577 5578 5579 5580 5580 5580 5582 5584 5584 5586 5586 5585 5585 5585
5579 5577 5575 5574 5574 5573 5571 5570 5569 5572 5573 5573 5573 5572 5571 5571 5569 5567 5569 5571 5571 5570 5568 5567 5567 5568 5568 5569 5568 5568 5569 5570 5572 5573 5573 5574 5576 5577 5578 5580 5580 5579 5579
5572 5570 5568 5568 5567 5566 5564 5562 5560 5564 5565 5565 5564 5563 5561 5561 5560 5559 5561 5563 5563 5563 5562 5562 5561 5561 5562 5562 5561 5562 5563 5563 5566 5567 5567 5566 5569 5568 5571 5575 5575 5574 5574